JLY1508 SBSP-SBRJ

Flight info

Callsign JLY1508
Flight time N/A
Altitude 29000
Route NIBRU UZ171 KEVUN
Aircraft B738/M-SDE2E3FGHIRWXY/LB1

Departure

Time 2026-05-03 22:51
Airport Congonhas–Deputado Freitas Nobre Airport (SBSP)

Arrival

Time N/A
Airport Santos Dumont Airport (SBRJ)
Time Latitude Longitude Altitude Speed Heading
2026-05-03 22:05 -23.62662 -46.65859 2600 ft 0 kts 237°
2026-05-03 22:22 -23.62661 -46.65859 2600 ft 0 kts 237°
2026-05-03 22:41 -23.62656 -46.65851 2600 ft 4 kts 240°
2026-05-03 22:41 -23.62646 -46.65824 2600 ft 9 kts 257°
2026-05-03 22:41 -23.62644 -46.65796 2600 ft 9 kts 282°
2026-05-03 22:41 -23.62654 -46.65770 2600 ft 9 kts 309°
2026-05-03 22:42 -23.62673 -46.65750 2600 ft 9 kts 327°
2026-05-03 22:42 -23.62678 -46.65747 2600 ft 35 kts 327°
2026-05-03 22:44 -23.62676 -46.65748 2600 ft 2 kts 327°
2026-05-03 22:44 -23.62644 -46.65771 2600 ft 10 kts 327°
2026-05-03 22:44 -23.62556 -46.65831 2600 ft 18 kts 328°
2026-05-03 22:44 -23.62448 -46.65906 2600 ft 18 kts 327°
2026-05-03 22:45 -23.62343 -46.65979 2600 ft 18 kts 327°
2026-05-03 22:45 -23.62239 -46.66045 2600 ft 17 kts 339°
2026-05-03 22:45 -23.62172 -46.66088 2600 ft 5 kts 327°
2026-05-03 22:45 -23.62140 -46.66110 2600 ft 5 kts 328°
2026-05-03 22:46 -23.62122 -46.66122 2600 ft 0 kts 328°
2026-05-03 22:48 -23.62117 -46.66125 2600 ft 3 kts 328°
2026-05-03 22:48 -23.62067 -46.66132 2599 ft 12 kts 18°
2026-05-03 22:48 -23.62059 -46.66067 2599 ft 12 kts 149°
2026-05-03 22:48 -23.62082 -46.66051 2599 ft 0 kts 147°
2026-05-03 22:51 -23.62098 -46.66040 2599 ft 19 kts 147°
2026-05-03 22:51 -23.62444 -46.65801 2601 ft 97 kts 147°
2026-05-03 22:51 -23.63208 -46.65275 2672 ft 154 kts 148°
2026-05-03 22:51 -23.64149 -46.64630 3413 ft 168 kts 149°
2026-05-03 22:52 -23.65070 -46.63731 3851 ft 204 kts 122°
2026-05-03 22:52 -23.65685 -46.62265 4399 ft 220 kts 115°
2026-05-03 22:52 -23.66405 -46.60663 4620 ft 249 kts 120°
2026-05-03 22:52 -23.67231 -46.58980 5191 ft 263 kts 120°
2026-05-03 22:53 -23.68141 -46.57136 5665 ft 280 kts 120°
2026-05-03 22:53 -23.69070 -46.55286 6773 ft 277 kts 121°
2026-05-03 22:53 -23.69998 -46.53438 7714 ft 280 kts 122°
2026-05-03 22:53 -23.70943 -46.51556 8583 ft 285 kts 122°
2026-05-03 22:54 -23.71774 -46.49605 9471 ft 293 kts 108°
2026-05-03 22:54 -23.71888 -46.47352 10359 ft 304 kts 87°
2026-05-03 22:54 -23.71595 -46.45007 10866 ft 324 kts 84°
2026-05-03 22:54 -23.71219 -46.42485 11129 ft 348 kts 83°
2026-05-03 22:55 -23.70810 -46.39843 11761 ft 357 kts 82°
2026-05-03 22:55 -23.70399 -46.37156 12572 ft 360 kts 82°
2026-05-03 22:55 -23.69993 -46.34439 13353 ft 365 kts 82°
2026-05-03 22:55 -23.69591 -46.31687 14085 ft 371 kts 82°
2026-05-03 22:56 -23.69186 -46.28885 14752 ft 377 kts 81°
2026-05-03 22:56 -23.68783 -46.26075 15364 ft 383 kts 81°
2026-05-03 22:56 -23.68369 -46.23181 15980 ft 389 kts 81°
2026-05-03 22:56 -23.67949 -46.20242 16598 ft 395 kts 81°
2026-05-03 22:57 -23.67520 -46.17253 17235 ft 401 kts 80°
2026-05-03 22:57 -23.67086 -46.14227 17835 ft 407 kts 80°
2026-05-03 22:57 -23.66645 -46.11160 18446 ft 412 kts 80°
2026-05-03 22:57 -23.66198 -46.08051 18973 ft 418 kts 80°
2026-05-03 22:58 -23.65745 -46.04903 19521 ft 422 kts 79°
2026-05-03 22:58 -23.65289 -46.01729 20079 ft 426 kts 79°
2026-05-03 22:58 -23.64827 -45.98520 20645 ft 430 kts 79°
2026-05-03 22:58 -23.64361 -45.95281 21203 ft 434 kts 79°
2026-05-03 22:59 -23.63896 -45.92061 21745 ft 438 kts 79°
2026-05-03 22:59 -23.63420 -45.88766 22246 ft 443 kts 79°
2026-05-03 22:59 -23.62937 -45.85430 22754 ft 447 kts 79°
2026-05-03 22:59 -23.62451 -45.82080 23359 ft 448 kts 79°
2026-05-03 23:00 -23.61966 -45.78733 24031 ft 446 kts 78°
2026-05-03 23:00 -23.61481 -45.75394 24620 ft 445 kts 78°
2026-05-03 23:00 -23.60996 -45.72063 25104 ft 444 kts 78°
2026-05-03 23:00 -23.60513 -45.68745 25196 ft 443 kts 78°
2026-05-03 23:01 -23.60027 -45.65416 25233 ft 445 kts 78°
2026-05-03 23:01 -23.59538 -45.62083 25228 ft 445 kts 78°
2026-05-03 23:01 -23.59056 -45.58794 25238 ft 444 kts 78°
2026-05-03 23:01 -23.58568 -45.55472 25243 ft 444 kts 78°
2026-05-03 23:02 -23.58081 -45.52153 25243 ft 444 kts 78°
2026-05-03 23:02 -23.57591 -45.48828 25239 ft 443 kts 78°
2026-05-03 23:02 -23.57075 -45.45517 25231 ft 443 kts 76°
2026-05-03 23:02 -23.56436 -45.42241 25240 ft 443 kts 74°
2026-05-03 23:03 -23.55729 -45.38979 25243 ft 442 kts 73°
2026-05-03 23:03 -23.55003 -45.35720 25254 ft 442 kts 73°
2026-05-03 23:03 -23.54280 -45.32457 25244 ft 443 kts 73°
2026-05-03 23:03 -23.53568 -45.29196 25235 ft 443 kts 74°
2026-05-03 23:04 -23.52874 -45.25975 25235 ft 442 kts 74°
2026-05-03 23:04 -23.52178 -45.22715 25240 ft 441 kts 74°
2026-05-03 23:04 -23.51488 -45.19465 25234 ft 440 kts 74°
2026-05-03 23:04 -23.50801 -45.16232 25219 ft 435 kts 74°
2026-05-03 23:05 -23.50121 -45.13041 25229 ft 431 kts 74°
2026-05-03 23:05 -23.49442 -45.09858 25235 ft 432 kts 74°
2026-05-03 23:05 -23.48760 -45.06670 25241 ft 433 kts 74°
2026-05-03 23:05 -23.48077 -45.03474 25149 ft 435 kts 74°
2026-05-03 23:06 -23.47385 -45.00242 24658 ft 438 kts 74°
2026-05-03 23:06 -23.46704 -44.97065 24275 ft 436 kts 74°
2026-05-03 23:06 -23.46013 -44.93852 23848 ft 434 kts 74°
2026-05-03 23:06 -23.45314 -44.90670 23366 ft 431 kts 74°
2026-05-03 23:07 -23.44610 -44.87507 22915 ft 428 kts 74°
2026-05-03 23:07 -23.43909 -44.84370 22480 ft 425 kts 74°
2026-05-03 23:07 -23.43213 -44.81255 22048 ft 421 kts 74°
2026-05-03 23:07 -23.42524 -44.78165 21631 ft 418 kts 74°
2026-05-03 23:08 -23.41841 -44.75102 21207 ft 415 kts 74°
2026-05-03 23:08 -23.41162 -44.72060 20802 ft 412 kts 74°
2026-05-03 23:08 -23.40498 -44.69083 20402 ft 409 kts 75°
2026-05-03 23:08 -23.39827 -44.66080 20007 ft 407 kts 75°
2026-05-03 23:09 -23.39161 -44.63098 19569 ft 405 kts 75°
2026-05-03 23:09 -23.38502 -44.60153 19161 ft 403 kts 75°
2026-05-03 23:09 -23.37840 -44.57199 18750 ft 401 kts 75°
2026-05-03 23:09 -23.37182 -44.54260 18310 ft 399 kts 75°
2026-05-03 23:10 -23.36526 -44.51336 17866 ft 396 kts 75°
2026-05-03 23:10 -23.35875 -44.48438 17451 ft 393 kts 75°
2026-05-03 23:10 -23.35230 -44.45565 17042 ft 390 kts 75°
2026-05-03 23:10 -23.34593 -44.42748 16641 ft 386 kts 75°
2026-05-03 23:11 -23.33712 -44.40034 16284 ft 374 kts 65°
2026-05-03 23:11 -23.32631 -44.37509 15918 ft 365 kts 63°
2026-05-03 23:11 -23.31516 -44.35042 15550 ft 362 kts 63°
2026-05-03 23:11 -23.30408 -44.32587 15167 ft 361 kts 63°
2026-05-03 23:12 -23.29318 -44.30136 14785 ft 359 kts 64°
2026-05-03 23:12 -23.28244 -44.27686 14404 ft 358 kts 64°
2026-05-03 23:12 -23.27183 -44.25243 14009 ft 357 kts 64°
2026-05-03 23:12 -23.26133 -44.22811 13580 ft 355 kts 65°
2026-05-03 23:13 -23.25101 -44.20417 13181 ft 353 kts 65°
2026-05-03 23:13 -23.24064 -44.18009 12796 ft 351 kts 65°
2026-05-03 23:13 -23.23032 -44.15614 12409 ft 349 kts 65°
2026-05-03 23:13 -23.22008 -44.13236 12035 ft 346 kts 65°
2026-05-03 23:14 -23.20989 -44.10876 11662 ft 344 kts 65°
2026-05-03 23:14 -23.19976 -44.08531 11284 ft 342 kts 65°
2026-05-03 23:14 -23.18950 -44.06233 11090 ft 333 kts 64°
2026-05-03 23:14 -23.17922 -44.04009 10901 ft 326 kts 64°
2026-05-03 23:15 -23.16917 -44.01842 10732 ft 325 kts 64°
2026-05-03 23:15 -23.15910 -43.99663 10570 ft 319 kts 64°
2026-05-03 23:15 -23.14957 -43.97513 10388 ft 313 kts 66°
2026-05-03 23:15 -23.14050 -43.95392 10216 ft 306 kts 66°
2026-05-03 23:16 -23.13169 -43.93314 10044 ft 299 kts 66°
2026-05-03 23:16 -23.12309 -43.91286 9872 ft 293 kts 66°
2026-05-03 23:16 -23.11460 -43.89289 9710 ft 290 kts 66°
2026-05-03 23:16 -23.10614 -43.87304 9560 ft 290 kts 66°
2026-05-03 23:17 -23.09765 -43.85315 9408 ft 291 kts 66°
2026-05-03 23:17 -23.08915 -43.83327 9254 ft 291 kts 66°
2026-05-03 23:17 -23.08074 -43.81361 9116 ft 289 kts 66°
2026-05-03 23:17 -23.07236 -43.79407 8949 ft 283 kts 66°
2026-05-03 23:18 -23.06414 -43.77489 8812 ft 278 kts 66°
2026-05-03 23:18 -23.05600 -43.75589 8645 ft 277 kts 66°
2026-05-03 23:18 -23.04788 -43.73697 8502 ft 278 kts 66°
2026-05-03 23:18 -23.03975 -43.71806 8363 ft 273 kts 66°
2026-05-03 23:19 -23.03180 -43.69956 8191 ft 268 kts 66°
2026-05-03 23:19 -23.02386 -43.68130 7944 ft 267 kts 66°
2026-05-03 23:19 -23.01592 -43.66316 7710 ft 266 kts 66°
2026-05-03 23:19 -23.00811 -43.64533 7475 ft 265 kts 66°
2026-05-03 23:20 -23.00023 -43.62734 7248 ft 263 kts 66°
2026-05-03 23:20 -22.99243 -43.60957 7086 ft 259 kts 66°
2026-05-03 23:20 -22.98471 -43.59201 6862 ft 258 kts 66°
2026-05-03 23:20 -22.97695 -43.57434 6598 ft 259 kts 66°
2026-05-03 23:21 -22.96924 -43.55682 6408 ft 256 kts 66°
2026-05-03 23:21 -22.96162 -43.53951 6254 ft 254 kts 66°
2026-05-03 23:21 -22.95396 -43.52212 6124 ft 257 kts 66°
2026-05-03 23:21 -22.94634 -43.50470 5898 ft 262 kts 66°
2026-05-03 23:22 -22.93105 -43.46859 5454 ft 259 kts 65°
2026-05-03 23:22 -22.92357 -43.45107 5355 ft 247 kts 67°
2026-05-03 23:22 -22.91665 -43.43467 5133 ft 240 kts 67°
2026-05-03 23:23 -22.90985 -43.41852 4975 ft 231 kts 66°
2026-05-03 23:23 -22.90545 -43.40812 4841 ft 227 kts 66°
2026-05-03 23:23 -22.89895 -43.39280 4642 ft 221 kts 67°
2026-05-03 23:23 -22.89050 -43.37284 4382 ft 217 kts 66°
2026-05-03 23:24 -22.88436 -43.35815 4218 ft 216 kts 72°
2026-05-03 23:24 -22.88274 -43.34241 4018 ft 208 kts 97°
2026-05-03 23:24 -22.88355 -43.32678 3858 ft 204 kts 95°
2026-05-03 23:24 -22.88390 -43.31676 3735 ft 197 kts 96°
2026-05-03 23:25 -22.88454 -43.29753 3488 ft 185 kts 95°
2026-05-03 23:25 -22.88483 -43.28850 3376 ft 178 kts 96°
2026-05-03 23:25 -22.88527 -43.27528 3185 ft 173 kts 95°
2026-05-03 23:25 -22.88615 -43.26219 2951 ft 175 kts 108°
2026-05-03 23:26 -22.89069 -43.24982 2496 ft 178 kts 116°
2026-05-03 23:26 -22.89532 -43.23774 2236 ft 170 kts 115°
2026-05-03 23:26 -22.89963 -43.22623 2041 ft 157 kts 115°
2026-05-03 23:26 -22.90379 -43.21540 1833 ft 154 kts 118°
2026-05-03 23:27 -22.91174 -43.20328 1615 ft 147 kts 139°
2026-05-03 23:27 -22.91706 -43.19888 1471 ft 144 kts 151°
2026-05-03 23:27 -22.92610 -43.19492 1285 ft 140 kts 168°
2026-05-03 23:27 -22.93583 -43.19358 1125 ft 142 kts 173°
2026-05-03 23:28 -22.94426 -43.18846 881 ft 142 kts 129°
2026-05-03 23:28 -22.94723 -43.17831 750 ft 146 kts 90°
2026-05-03 23:28 -22.94411 -43.16430 501 ft 143 kts 53°
2026-05-03 23:28 -22.93890 -43.16017 442 ft 139 kts 13°
2026-05-03 23:29 -22.92940 -43.16175 290 ft 143 kts 348°
2026-05-03 23:29 -22.91961 -43.16229 108 ft 139 kts 355°
2026-05-03 23:29 -22.91033 -43.16286 52 ft 136 kts 355°
2026-05-03 23:29 -22.90006 -43.16308 628 ft 158 kts 358°
2026-05-03 23:30 -22.88841 -43.16291 1382 ft 165 kts
2026-05-03 23:30 -22.87633 -43.16206 1947 ft 187 kts
2026-05-03 23:30 -22.86456 -43.15669 1970 ft 187 kts 45°
2026-05-03 23:30 -22.85942 -43.14419 1998 ft 186 kts 94°
2026-05-03 23:31 -22.86224 -43.13055 1998 ft 188 kts 113°
2026-05-03 23:31 -22.86327 -43.11656 1984 ft 191 kts 78°
2026-05-03 23:31 -22.86368 -43.10248 2215 ft 189 kts 113°
2026-05-03 23:31 -22.87055 -43.09054 2222 ft 190 kts 132°
2026-05-03 23:32 -22.87874 -43.07864 2248 ft 206 kts 128°
2026-05-03 23:32 -22.88711 -43.06555 2398 ft 216 kts 127°
2026-05-03 23:32 -22.89559 -43.05189 3349 ft 216 kts 127°
2026-05-03 23:32 -22.90382 -43.03842 4445 ft 215 kts 126°
2026-05-03 23:33 -22.91228 -43.02446 5136 ft 233 kts 126°
2026-05-03 23:33 -22.92163 -43.00901 5471 ft 252 kts 124°
2026-05-03 23:33 -22.93112 -42.99295 5473 ft 252 kts 124°
2026-05-03 23:33 -22.94051 -42.97697 5481 ft 251 kts 124°
2026-05-03 23:34 -22.94969 -42.96131 5496 ft 248 kts 124°
2026-05-03 23:34 -22.95905 -42.94531 5489 ft 247 kts 124°
2026-05-03 23:34 -22.96810 -42.92982 5489 ft 246 kts 124°
2026-05-03 23:34 -22.97723 -42.91418 5488 ft 244 kts 124°
2026-05-03 23:35 -22.98624 -42.89874 5489 ft 242 kts 124°
2026-05-03 23:35 -22.99531 -42.88319 5504 ft 246 kts 124°
2026-05-03 23:35 -23.00455 -42.86736 5510 ft 250 kts 124°
2026-05-03 23:35 -23.01452 -42.85188 5493 ft 256 kts 138°
2026-05-03 23:36 -23.03054 -42.84327 5511 ft 264 kts 173°
2026-05-03 23:36 -23.04852 -42.84549 5506 ft 263 kts 202°
2026-05-03 23:36 -23.06324 -42.85657 5499 ft 264 kts 228°
2026-05-03 23:36 -23.07176 -42.87418 5499 ft 267 kts 256°
2026-05-03 23:37 -23.07233 -42.89431 5507 ft 270 kts 275°
2026-05-03 23:37 -23.06898 -42.91447 5502 ft 272 kts 281°
2026-05-03 23:37 -23.06473 -42.93447 5495 ft 273 kts 281°
2026-05-03 23:37 -23.06036 -42.95452 5502 ft 273 kts 281°
2026-05-03 23:38 -23.05603 -42.97465 5495 ft 274 kts 281°
2026-05-03 23:38 -23.04139 -43.04547 5542 ft 270 kts 280°
2026-05-03 23:38 -23.02583 -43.12320 5452 ft 263 kts 280°
2026-05-03 23:38 -23.00899 -43.20731 5548 ft 261 kts 280°
2026-05-03 23:39 -23.00509 -43.22694 5515 ft 268 kts 279°
2026-05-03 23:39 -22.99872 -43.25918 5486 ft 269 kts 280°
2026-05-03 23:39 -22.99085 -43.29854 5447 ft 263 kts 280°
2026-05-03 23:39 -22.98311 -43.33741 5511 ft 266 kts 280°
2026-05-03 23:40 -22.97887 -43.35859 5505 ft 270 kts 280°
2026-05-03 23:40 -22.97488 -43.37846 5499 ft 269 kts 280°
2026-05-03 23:40 -22.96894 -43.39772 5479 ft 272 kts 300°
2026-05-03 23:40 -22.95594 -43.41204 5481 ft 274 kts 327°
2026-05-03 23:41 -22.93792 -43.41831 5553 ft 277 kts 356°
2026-05-03 23:41 -22.91926 -43.41361 5485 ft 279 kts 32°
2026-05-03 23:41 -22.90551 -43.39941 5351 ft 272 kts 54°
2026-05-03 23:41 -22.89564 -43.38225 5171 ft 264 kts 63°
2026-05-03 23:42 -22.88745 -43.36480 5096 ft 255 kts 65°
2026-05-03 23:42 -22.88240 -43.34671 4699 ft 255 kts 89°
2026-05-03 23:42 -22.88302 -43.32671 4003 ft 277 kts 95°
2026-05-03 23:42 -22.88403 -43.30567 3810 ft 280 kts 95°
2026-05-03 23:43 -22.88487 -43.28480 3551 ft 282 kts 94°
2026-05-03 23:43 -22.88615 -43.26340 2757 ft 288 kts 103°
2026-05-03 23:43 -22.89311 -43.24257 2382 ft 297 kts 115°
2026-05-03 23:43 -22.90085 -43.22257 2217 ft 278 kts 114°
2026-05-03 23:44 -22.90468 -43.20275 2056 ft 264 kts 94°
2026-05-03 23:44 -22.90782 -43.18350 1459 ft 262 kts 111°
2026-05-03 23:44 -22.91665 -43.16683 949 ft 255 kts 136°
2026-05-03 23:44 -22.93450 -43.16207 895 ft 226 kts 147°